TimePDT,TemperatureF,Dew PointF,Humidity,Sea Level PressureIn,VisibilityMPH,Wind Direction,Wind SpeedMPH,Gust SpeedMPH,PrecipitationIn,Events,Conditions,WindDirDegrees,DateUTC
12:58 AM,52.3,45.7,78,30.02,10.0,SSE,6.9,-,N/A,,Clear,150,2013-07-11 07:58:00
1:58 AM,50.2,45.1,83,30.02,10.0,SE,8.1,-,N/A,,Clear,140,2013-07-11 08:58:00
2:58 AM,48.4,44.4,86,30.03,10.0,SSE,8.1,-,N/A,,Clear,150,2013-07-11 09:58:00
3:58 AM,47.5,43.9,87,30.04,10.0,SSE,6.9,-,N/A,,Clear,150,2013-07-11 10:58:00
4:43 AM,48.2,44.6,87,30.04,10.0,SSE,5.8,-,N/A,,Mostly Cloudy,150,2013-07-11 11:43:00
4:58 AM,49.1,45.5,87,30.06,10.0,SSE,4.6,-,N/A,,Mostly Cloudy,150,2013-07-11 11:58:00
5:58 AM,52.0,46.6,82,30.07,10.0,SE,5.8,-,N/A,,Overcast,140,2013-07-11 12:58:00
6:58 AM,53.4,47.1,79,30.08,10.0,South,5.8,-,N/A,,Overcast,170,2013-07-11 13:58:00
7:58 AM,54.3,47.1,77,30.09,10.0,South,3.5,-,N/A,,Overcast,170,2013-07-11 14:58:00
8:58 AM,55.2,47.3,75,30.09,10.0,SSW,5.8,-,N/A,,Overcast,210,2013-07-11 15:58:00
9:58 AM,56.7,47.5,71,30.09,10.0,West,5.8,-,N/A,,Overcast,260,2013-07-11 16:58:00
10:58 AM,57.6,47.3,69,30.10,10.0,West,4.6,-,N/A,,Overcast,280,2013-07-11 17:58:00
11:58 AM,60.8,47.5,62,30.10,10.0,Variable,1.2,-,N/A,,Overcast,0,2013-07-11 18:58:00
12:23 PM,60.8,48.2,63,30.09,10.0,Variable,2.3,-,N/A,,Scattered Clouds,0,2013-07-11 19:23:00
12:58 PM,64.6,48.0,55,30.09,10.0,Variable,3.5,-,N/A,,Partly Cloudy,0,2013-07-11 19:58:00
1:58 PM,66.0,45.9,48,30.08,10.0,SW,5.8,-,N/A,,Clear,230,2013-07-11 20:58:00
2:58 PM,68.2,45.1,43,30.07,10.0,WSW,8.1,-,N/A,,Clear,250,2013-07-11 21:58:00
3:58 PM,69.4,46.2,43,30.06,10.0,Variable,6.9,-,N/A,,Clear,0,2013-07-11 22:58:00
4:58 PM,70.2,46.8,43,30.04,10.0,West,5.8,-,N/A,,Clear,270,2013-07-11 23:58:00
5:58 PM,70.0,46.6,43,30.03,10.0,NW,10.4,-,N/A,,Clear,320,2013-07-12 00:58:00
6:58 PM,69.4,46.9,45,30.01,10.0,NW,6.9,-,N/A,,Clear,310,2013-07-12 01:58:00
7:58 PM,67.6,46.4,46,30.01,10.0,Variable,4.6,-,N/A,,Clear,0,2013-07-12 02:58:00
8:58 PM,65.1,47.8,54,30.01,10.0,North,5.8,-,N/A,,Clear,360,2013-07-12 03:58:00
9:58 PM,59.9,47.8,64,30.02,10.0,West,5.8,-,N/A,,Clear,280,2013-07-12 04:58:00
10:58 PM,59.7,47.1,63,30.02,10.0,West,1.2,-,N/A,,Clear,280,2013-07-12 05:58:00
11:58 PM,58.5,47.1,66,30.03,10.0,West,4.6,-,N/A,,Overcast,280,2013-07-12 06:58:00